STARLINK-3896 (52456 NORAD) Tracking and Keplerian Element Data

This shows tracking and keplerian element data for the satellite.

Feedback or suggestion? Click here.




ElementValue
Catalog52456
NameSTARLINK-3896
Epoch Orbit130
Epoch Day228.91667824
Epoch Year2022
RAAN148.5061
Inclination53.2186
Eccentricity0.0002108
Argument of Perigee64.1024
Mean Anonmoly159.1301
Mean Motion15.0885591
Decay Rate-0.00036162
L11 52456U 22049F 22228.91667824 -.00036162 00000+0 -22644-2 0 9997
L22 52456 53.2186 148.5061 0002108 64.1024 159.1301 15.08855910 1308

Live tracking and technical data element details for STARLINK-3896 (NORAD 52456). STARLINK-3896 can be tracked NOW for your location showing map with azimuth and elevation plus other details from your city location.

Track the satellite on the map from your city or location and see movement details for azimuth, elevation, latitude, longitude, range, height, and movement on the map or in text.







IsCatalogInMostPopularTable: catalog: 52456, numindb: 7
Update: records affected: 1



GetName: 52456 STARLINK-3896

Hit Count: updated at: Thu, 18 Aug 2022 20:37:47 GMT